Torna al catalogo

STARLINK-33628

AttivoComunicazioniVLEO
NORAD 63067·PAYLOAD·🇺🇸 United States

Lanciato Feb 21, 2025 da Cape Canaveral Space Force Station

Loading…

Prossimi Passaggi (prossime 24 ore)

TLE

AggiornatoSource: CelesTrak SupGP

Epoca: Sep 15, 2026, 03:43 UTC

1 63067C 25035R   26258.15534722  .00058225  00000+0  21087-2 0  2588
2 63067  43.0001 157.2889 0001404 271.9120  86.9727 15.27551999    16

Traccia STARLINK-33628 in tempo reale con AllMySat

Download on the App Store